User: anonymous   Login
Location: Vancouver
(49.2500°N, 123.1330°W)
Time: 07:22:05
(UTC-07:00)
Language:

Cosmos 1340 Rocket - Orbit

View from above orbital plane
View from above orbital plane
View from above satellite
View from above satellite

Ground track
Ground track

The orbit data is extracted from the following two-line orbital elements,

1 13068U 82013B   17084.89543643 +.00000017 +00000-0 -43616-6 0  9999
2 13068 081.2026 317.5525 0020651 228.9946 130.9493 15.06865654910680
Epoch (UTC): 25 March 2017 21:29:25
Eccentricity: 0.0020651
inclination: 81.2026°
perigee height: 531 km
apogee height: 560 km
right ascension of ascending node: 317.5525°
argument of perigee: 228.9946°
revolutions per day: 15.06865654
mean anomaly at epoch: 130.9493°
orbit number at epoch: 91068

The dashed part of the orbit path shows where the satellite is in the earth's shadow,  

DLR